This is the latest recevied weather packets stored in our database for station/object W0WC. If no packets are shown the sender has not sent any weather packets the latest 10 day(s).
| Time | Temp. | Humidity | Pressure | Rain* | Wind** | Luminosity | Snow |
|---|---|---|---|---|---|---|---|
| 1778167252 | 16.11° C | 43% | 1019.3 hPa | 0 mm | - | 566 W/m² | - |
| 1778166949 | 16.11° C | 43% | 1019.4 hPa | 0 mm | - | 552 W/m² | - |
| 1778166645 | 16.11° C | 44% | 1019.6 hPa | 0 mm | - | 539 W/m² | - |
| 1778166343 | 16.67° C | 42% | 1019.5 hPa | 0 mm | - | 525 W/m² | - |
| 1778166039 | 16.11° C | 43% | 1019.6 hPa | 0 mm | - | 510 W/m² | - |
| 1778165734 | 15.56° C | 44% | 1019.5 hPa | 0 mm | - | 496 W/m² | - |
| 1778165432 | 15.56° C | 43% | 1019.5 hPa | 0 mm | - | 482 W/m² | - |
| 1778165128 | 16.11° C | 43% | 1019.4 hPa | 0 mm | - | 465 W/m² | - |
| 1778164826 | 15.56° C | 45% | 1019.5 hPa | 0 mm | - | 450 W/m² | - |
| 1778164523 | 15.56° C | 46% | 1019.4 hPa | 0 mm | - | 435 W/m² | - |
| 1778164221 | 15° C | 47% | 1019.5 hPa | 0 mm | - | 422 W/m² | - |
| 1778163915 | 15° C | 49% | 1019.4 hPa | 0 mm | - | 403 W/m² | - |
| 1778163613 | 15° C | 48% | 1019.6 hPa | 0 mm | - | 390 W/m² | - |
| 1778163309 | 15° C | 49% | 1019.5 hPa | 0 mm | - | 373 W/m² | - |
| 1778163005 | 14.44° C | 49% | 1019.5 hPa | 0 mm | - | 357 W/m² | - |
| 1778162702 | 13.89° C | 50% | 1019.6 hPa | 0 mm | - | 347 W/m² | - |
| 1778162399 | 13.89° C | 49% | 1019.7 hPa | 0 mm | - | 328 W/m² | - |
| 1778162096 | 13.89° C | 48% | 1019.6 hPa | 0 mm | - | 310 W/m² | - |
| 1778161794 | 13.33° C | 48% | 1019.8 hPa | 0 mm | - | 292 W/m² | - |
| 1778161490 | 13.33° C | 50% | 1019.6 hPa | 0 mm | - | 275 W/m² | - |
| 1778161186 | 12.78° C | 50% | 1019.6 hPa | 0 mm | - | 261 W/m² | - |
| 1778160882 | 13.33° C | 51% | 1019.7 hPa | 0 mm | - | 244 W/m² | - |
| 1778160581 | 12.78° C | 52% | 1019.7 hPa | 0 mm | - | 231 W/m² | - |
| 1778160277 | 12.78° C | 52% | 1019.6 hPa | 0 mm | - | 216 W/m² | - |
| 1778159973 | 12.22° C | 52% | 1019.7 hPa | 0 mm | - | 201 W/m² | - |
* Rain latest hour (hover to see other rain measurements)
** Current wind speed in m/s (hover to see current wind gust speed)